Regional Weather Roundup
Issued by NWS

Home | Current Version | Previous Version | Text Only | Print | Product List | Glossary On
Versions: 1 2 3 4 5 6 7 8 9 10 11 12 13 14 15 16 17 18 19 20 21 22 23 24 25 26 27 28 29 30 31 32 33 34 35 36 37 38 39 40 41 42 43 44 45 46 47 48 49 50
000
ASUS43 KMKX 180020
RWRWI

WISCONSIN REGIONAL WEATHER ROUNDUP
NATIONAL WEATHER SERVICE MILWAUKEE/SULLIVAN WI
600 PM CST WED JAN 17 2018

NOTE: "FAIR" INDICATES FEW OR NO CLOUDS BELOW 12,000 FEET WITH NO
SIGNIFICANT WEATHER AND/OR OBSTRUCTIONS TO VISIBILITY.

WIZ001-002-006>008-014>016-023>028-180100-
NORTHWEST WISCONSIN

CITY           SKY/WX    TMP DP  RH WIND       PRES   REMARKS
SUPERIOR ARPT  FAIR      25   9  52 SW14      29.91F WCI  13
6HR MIN TEMP:  19; 6HR MAX TEMP:  27;

ASHLAND        FAIR      25   7  46 SW16G26   29.90S WCI  12
6HR MIN TEMP:  20; 6HR MAX TEMP:  29;

HAYWARD        FAIR      21   6  52 SW9       29.98R WCI  11
6HR MIN TEMP:  17; 6HR MAX TEMP:  25;

SIREN          FAIR      23  10  56 SW13      30.02S WCI  11
6HR MIN TEMP:  17; 6HR MAX TEMP:  24;

CUMBERLAND     FAIR      18   9  68 SW8       30.01F WCI   7
RICE LAKE      FAIR      21   9  60 CALM      30.05S
6HR MIN TEMP:  17; 6HR MAX TEMP:  25;

CHETEK         FAIR      21   9  57 SW7       30.05F WCI  13
6HR MIN TEMP:  16; 6HR MAX TEMP:  26;

LADYSMITH      FAIR      21   8  58 SW8       30.03S WCI  11
6HR MIN TEMP:  13; 6HR MAX TEMP:  24;

EAU CLAIRE     FAIR      24   9  52 SW12      30.06F WCI  13
6HR MIN TEMP:  19; 6HR MAX TEMP:  26; 6HR PCP: TRACE;

MENOMONIE      FAIR      23  11  61 SW10      30.08S WCI  12
6HR MIN TEMP:  20; 6HR MAX TEMP:  26;

NEW RICHMOND   FAIR      21  10  64 SW10      30.06F WCI   9
6HR MIN TEMP:  18; 6HR MAX TEMP:  23;

OSCEOLA        FAIR      24  12  61 SW9       30.09S WCI  14
6HR MIN TEMP:  20; 6HR MAX TEMP:  26;

$$

WIZ003>005-009-010-017-018-180100-
NORTH CENTRAL WISCONSIN

CITY           SKY/WX    TMP DP  RH WIND       PRES   REMARKS
MANITOWISH WTR FAIR      20   5  52 SW12G18   29.90R WCI   8
6HR MIN TEMP:  16; 6HR MAX TEMP:  24;

ARBOR VITAE    FAIR      22   9  57 SW6       29.91S WCI  14
6HR MIN TEMP:  19; 6HR MAX TEMP:  27;

WOODRUFF       FAIR      22   9  57 SW6       29.91S WCI  14
6HR MIN TEMP:  19; 6HR MAX TEMP:  27;

RHINELANDER    FAIR      20   8  60 SW16G24   29.92F WCI   6
6HR MIN TEMP:  15; 6HR MAX TEMP:  23; 6HR PCP: TRACE;

EAGLE RIVER    FAIR      19   8  62 W15G22    29.88S WCI   5
6HR MIN TEMP:  16; 6HR MAX TEMP:  24;

LAND O LAKES   FAIR      22   8  55 W6        29.88R WCI  15
6HR MIN TEMP:  22; 6HR MAX TEMP:  28;

PHILLIPS       FAIR      20   7  58 SW12G17   29.96S WCI   8
6HR MIN TEMP:  14; 6HR MAX TEMP:  22;

TOMAHAWK       FAIR      20   7  58 SW7       29.97S WCI  11
6HR MIN TEMP:  15; 6HR MAX TEMP:  23;

MEDFORD        FAIR      20   7  56 SW10G17   30.00F WCI   9
6HR MIN TEMP:  12; 6HR MAX TEMP:  22;

MERRILL        FAIR      20   7  57 W7        30.00S WCI  11
6HR MIN TEMP:  15; 6HR MAX TEMP:  21;

$$

WIZ029-030-035-036-043>047-180100-
CENTRAL WISCONSIN

CITY           SKY/WX    TMP DP  RH WIND       PRES   REMARKS
WAUSAU         FAIR      21   6  52 SW9       30.00F WCI  11
6HR MIN TEMP:  15; 6HR MAX TEMP:  23;

MOSINEE        PTCLDY    19   7  58 S10       30.03F WCI   8
MARSHFIELD     FAIR      21   7  54 SW16      30.02F WCI   7
6HR MIN TEMP:  15; 6HR MAX TEMP:  24;

STEVENS POINT  FAIR      21   6  51 SW14      30.07F WCI   8
6HR MIN TEMP:  16; 6HR MAX TEMP:  23;

WAUPACA        FAIR      24   6  47 SW12      30.10S WCI  13
6HR MIN TEMP:  21; 6HR MAX TEMP:  27;

WAUTOMA        FAIR      20   7  57 SW9       30.13S WCI   9
6HR MIN TEMP:  20; 6HR MAX TEMP:  25;

WISC RAPIDS    FAIR      21   5  50 SW13      30.11S WCI   9
6HR MIN TEMP:  18; 6HR MAX TEMP:  25;

CAMP DOUGLAS   CLEAR     21   9  58 W14G21    30.14S WCI   8
$$

WIZ011>013-019>022-031-037>040-048>050-180100-
NORTHEAST WISCONSIN

CITY           SKY/WX    TMP DP  RH WIND       PRES   REMARKS
ANTIGO         FAIR      19   6  57 SW15      29.96F WCI   5
6HR MIN TEMP:  13; 6HR MAX TEMP:  20;

SHAWANO        FAIR      25   8  48 SW12G18   30.01F WCI  14
6HR MIN TEMP:  20; 6HR MAX TEMP:  26;

OCONTO         FAIR      23   7  50 SW14G24   30.00F WCI  10
6HR MIN TEMP:  17; 6HR MAX TEMP:  24;

STURGEON BAY   FAIR      21   9  59 SW16G25   30.01F WCI   7
6HR MIN TEMP:  16; 6HR MAX TEMP:  23; 6HR PCP: TRACE;

GREEN BAY      FAIR      21   7  54 SW14G21   30.06F WCI   8
6HR MIN TEMP:  18; 6HR MAX TEMP:  24;

MANITOWOC      FAIR      20   9  62 SW17G28   30.08F WCI   5
6HR MIN TEMP:  18; 6HR MAX TEMP:  23;

APPLETON       CLEAR     21   3  45 SW16G25   30.07F WCI   7
CLINTONVILLE   FAIR      23   5  46 SW12      30.05F WCI  12
OSHKOSH        FAIR      20   7  57 SW12      30.11F WCI   8
6HR MIN TEMP:  18; 6HR MAX TEMP:  22;

$$

WIZ032>034-041-042-053>061-180100-
SOUTHWEST WISCONSIN

CITY           SKY/WX    TMP DP  RH WIND       PRES   REMARKS
LA CROSSE      FAIR      22  10  60 SW10      30.20R WCI  11
6HR MIN TEMP:  20; 6HR MAX TEMP:  25;

SPARTA         FAIR      22  10  59 SW3       30.17F
6HR MIN TEMP:  20; 6HR MAX TEMP:  27;

VIROQUA        FAIR      20  11  69 SW16G23   30.17S WCI   5
6HR MIN TEMP:  18; 6HR MAX TEMP:  23;

BOSCOBEL       FAIR      21   8  57 SW13G22   30.25F WCI   9
6HR MIN TEMP:  19; 6HR MAX TEMP:  25; 6HR PCP: TRACE;

PRAIRIE DU CHI FAIR      20   7  56 SW7       30.27F WCI  12
6HR MIN TEMP:  20; 6HR MAX TEMP:  23;

PLATTEVILLE    FAIR      18  10  71 SW17      30.28F WCI   3
6HR MIN TEMP:  18; 6HR MAX TEMP:  22;

$$

WIZ056-057-062-063-064-067-068-180100-
SOUTH CENTRAL WISCONSIN

CITY           SKY/WX    TMP DP  RH WIND       PRES   REMARKS
REEDSBURG      FAIR      20   8  59 SW13      30.19R WCI   7
6HR MIN TEMP:  17; 6HR MAX TEMP:  23;

BARABOO/DELLS  FAIR      20   7  57 SW21      30.16S WCI   3
6HR MIN TEMP:  17; 6HR MAX TEMP:  23;

LONE ROCK      FAIR      20   8  60 SW12G21   30.23F WCI   8
6HR MIN TEMP:  17; 6HR MAX TEMP:  23;

MINERAL POINT  FAIR      21  10  63 SW15      30.23F WCI   8
MADISON        FAIR      19   7  59 SW13G30   30.21F WCI   6
6HR MIN TEMP:  16; 6HR MAX TEMP:  21;

MIDDLETON      FAIR      21   9  59 SW14G23   30.21F WCI   8
6HR MIN TEMP:  20; 6HR MAX TEMP:  24;

WATERTOWN      FAIR      17  10  73 SW17G25   30.20F WCI   1
6HR MIN TEMP:  16; 6HR MAX TEMP:  22;

MONROE         FAIR      18  10  73 SW25G32   30.25F WCI  -1
JANESVILLE     CLEAR     18  10  73 SW15G22   30.28F WCI   3
$$

WIZ051-052-058>065-066-070>072-180100-
SOUTHEAST WISCONSIN

CITY           SKY/WX    TMP DP  RH WIND       PRES   REMARKS
MILWAUKEE      FAIR      20   8  60 SW20G33   30.21F WCI   4
6HR MIN TEMP:  19; 6HR MAX TEMP:  25;

WAUKESHA       CLEAR     16   7  67 SW14G25   30.21F WCI   1
MILWAUKEE/TIMM CLEAR     18   7  62 SW18G29   30.20F WCI   2
RACINE         FAIR      17   8  67 SW20G29   30.24F WCI   1
6HR MIN TEMP:  17; 6HR MAX TEMP:  23;

BURLINGTON     FAIR      16   8  70 SW15      30.25F WCI   1
6HR MIN TEMP:  16; 6HR MAX TEMP:  20;

KENOSHA        FAIR      17   9  70 SW23G38   30.25F WCI  -1
6HR MIN TEMP:  17; 6HR MAX TEMP:  21; 6HR PCP: TRACE;

FOND DU LAC    FAIR      20   6  55 SW18G30   30.13F WCI   5
6HR MIN TEMP:  17; 6HR MAX TEMP:  22;

SHEBOYGAN      FAIR      20   9  62 SW16      30.12F WCI   6
6HR MIN TEMP:  20; 6HR MAX TEMP:  21;

WEST BEND      FAIR      19   9  63 SW13G22   30.14F WCI   7
JUNEAU         FAIR      18   8  65 SW22G28   30.19S WCI   0
6HR MIN TEMP:  15; 6HR MAX TEMP:  21;

$$

LSZ147-162-180100-
LAKE SUPERIOR

STATION/POSITION TIME  TEMP    WIND        PRES    WAVE
                       AIR SEA DIR/SP/G            HT/PER
                 (UTC) (F)     (DEG/KT/KT) (MB)    (FT/S)
DEVILS ISLAND    0000   27     230/ 21/ 25 1011.9R
SAXON HARBOR     2330   29     200/ 12/ 20 1011.9R
$$

LMZ867-665-643>646-180100-
LAKE MICHIGAN

STATION/POSITION TIME  TEMP    WIND        PRES    WAVE
                       AIR SEA DIR/SP/G            HT/PER
                 (UTC) (F)     (DEG/KT/KT) (MB)    (FT/S)
NORTHPORT PIER   2347


USA.gov is the U.S. government's official web portal to all federal, state and local government web resources and services.